User: anonymous   Login
Location: Unspecified
(0.0000°N, 0.0000°E)
Time: 08:40:54
(UTC+00:00)
Language:

BHUTAN-1 - Orbit

View from above orbital plane
View from above orbital plane
View from above satellite
View from above satellite

Ground track
Ground track

The orbit data is extracted from the following two-line orbital elements,

1 43591U 98067PF  20323.57107911 +.11695971 +12499-4 +37838-3 0  9993
2 43591 051.6155 198.6835 0005882 255.3071 104.7305 16.44501217130390
Epoch (UTC): 18 November 2020 13:42:21
Eccentricity: 0.0005882
inclination: 51.6155°
perigee height: 150 km
apogee height: 158 km
right ascension of ascending node: 198.6835°
argument of perigee: 255.3071°
revolutions per day: 16.44501217
mean anomaly at epoch: 104.7305°
orbit number at epoch: 13039

The dashed part of the orbit path shows where the satellite is in the earth's shadow,  

DLR